This demonstration page uses our WeatherBlox Daily Observations layout. Learn more.

Left ArrowRight Arrow

44.89941, -97.11507

Hourly Observations for January 2, 2021

Temp ( °F °C ) Dew Point ( °F °C ) Humidity (%) Winds ( mph kmh ) Pressure ( in mb ) Visibility ( mi km ) Precip ( " mm )
12:21 am 00:21 Cloudy with Mist and Fog 14 -10 13 -10.6 95 95 S 3 6 30.15 1021 1 1 0.00 0.00
12:46 am 00:46 Cloudy with Mist and Fog 11 -11.7 10 -12.2 96 96 SSE 6 9 30.16 1021 1 2 0.00 0.00
12:53 am 00:53 Mostly Cloudy with Mist and Fog 12 -11.1 11 -11.7 95 95 SSE 6 9 30.08 1019 1 1 0.00 0.00
1:22 am 01:22 Cloudy with Mist and Fog 12 -11.1 10 -12.2 92 92 SSE 6 9 30.14 1021 2 3 0.00 0.00
1:24 am 01:24 Cloudy with Mist and Fog 12 -11.1 10 -12.2 92 92 SSE 6 9 30.14 1021 4 6 0.00 0.00
1:37 am 01:37 Partly Cloudy 12 -11.1 10 -12.2 92 92 SSE 7 11 30.14 1021 8 13 0.00 0.00
1:53 am 01:53 Clear 12 -11.1 10 -12.2 92 92 SSE 7 11 30.06 1018 8 13 0.00 0.00
2:53 am 02:53 Clear 11 -11.7 10 -12.2 96 96 SSE 6 9 30.05 1018 8 13 0.00 0.00
3:53 am 03:53 Clear 9 -12.8 7 -13.9 92 92 SSE 6 9 30.05 1018 7 11 0.00 0.00
4:53 am 04:53 Clear 9 -12.8 7 -13.9 92 92 SSE 3 6 30.06 1018 7 11 0.00 0.00
5:53 am 05:53 Clear 9 -12.8 7 -13.9 92 92 SSE 8 13 30.06 1018 8 13 0.00 0.00
6:53 am 06:53 Clear 9 -12.8 7 -13.9 92 92 SSE 9 15 30.06 1018 7 11 0.00 0.00
7:53 am 07:53 Clear 10 -12.2 8 -13.3 92 92 SSE 9 15 30.05 1018 7 11 0.00 0.00
8:53 am 08:53 Sunny with Mist and Fog 11 -11.7 9 -12.8 92 92 SSE 10 17 30.05 1018 6 10 0.00 0.00
9:53 am 09:53 Sunny with Mist and Fog 14 -10 12 -11.1 92 92 SSE 9 15 30.05 1018 6 10 0.00 0.00
10:53 am 10:53 Sunny 18 -7.8 15 -9.4 88 88 SSE 9 15 30.02 1017 8 13 0.00 0.00
11:53 am 11:53 Sunny 22 -5.6 19 -7.2 89 89 SSE 9 15 29.98 1015 10 16 0.00 0.00
12:53 pm 12:53 Sunny 25 -3.9 22 -5.6 88 88 SSE 8 13 29.95 1014 10 16 0.00 0.00
1:53 pm 13:53 Sunny 28 -2.2 25 -3.9 88 88 SSE 8 13 29.93 1013 10 16 0.00 0.00
2:53 pm 14:53 Sunny 29 -1.7 25 -3.9 85 85 SSE 12 19 29.91 1013 10 16 0.00 0.00
3:53 pm 15:53 Sunny 30 -1.1 26 -3.3 85 85 SSE 13 20 29.90 1012 10 16 0.00 0.00
4:53 pm 16:53 Sunny 29 -1.7 24 -4.4 82 82 SSE 10 17 29.89 1012 10 16 0.00 0.00
5:53 pm 17:53 Clear 28 -2.2 23 -5 81 81 SSE 12 19 29.88 1012 10 16 0.00 0.00
6:53 pm 18:53 Clear 25 -3.9 21 -6.1 85 85 S 14 22 29.88 1012 10 16 0.00 0.00
7:53 pm 19:53 Clear 22 -5.6 19 -7.2 89 89 SSE 10 17 29.88 1012 10 16 0.00 0.00
8:53 pm 20:53 Clear 21 -6.1 18 -7.8 88 88 SSE 10 17 29.88 1012 10 16 0.00 0.00
9:53 pm 21:53 Clear 19 -7.2 17 -8.3 92 92 SSE 8 13 29.87 1011 10 16 0.00 0.00
10:53 pm 22:53 Clear 18 -7.8 15 -9.4 88 88 S 8 13 29.85 1011 10 16 0.00 0.00
11:53 pm 23:53 Clear 20 -6.7 17 -8.3 89 89 SSW 10 17 29.85 1011 10 16 0.00 0.00

Powered by AerisWeather